Cherry Point, NC

6:16 AM EDT on July 27, 2017 (GMT -0400)
Cherry Point Marine Corps Air Station

Weather History for KNKT - February, 2013

Change the Weather History Date:

Wednesday, February 13, 2013

  Actual Average Record
Temperature  
Mean Temperature 52 °F -  
Max Temperature 55 °F 55 °F 70 °F (2007)
Min Temperature 48 °F 35 °F 23 °F (2003)
Degree Days  
Heating Degree Days 14    
Growing Degree Days 2 (Base 50)    
Moisture  
Dew Point 47 °F    
Average Humidity 88    
Maximum Humidity 94    
Minimum Humidity 76    
Precipitation  
Precipitation 0.40 in - - ()
Sea Level Pressure  
Sea Level Pressure 29.78 in    
Wind  
Wind Speed 6 mph ()    
Max Wind Speed 16 mph    
Max Gust Speed 30 mph    
Visibility 6.0 miles    
Events Rain    
Averages and records for this station are not official NWS values.
T = Trace of Precipitation, MM = Missing Value Source: Averaged Metar Reports

Daily Weather History Graph

Daily Weather History Graph

Search for Another Location

Airport or City:

Trip Planner

Search our weather history database for the weather conditions in past years. The results will help you decide how hot, cold, wet, or windy it might be!

Date:

Astronomy

Feb. 13, 2013 Rise Set
Actual Time 6:55 AM EST 5:48 PM EST
Civil Twilight 6:29 AM EST 6:14 PM EST
Nautical Twilight 5:59 AM EST 6:44 PM EST
Astronomical Twilight 5:30 AM EST 7:13 PM EST
Moon 8:34 AM EST (2/13) 9:37 PM EST (2/13)
Length of Visible Light 11h 45m
Length of Day
10h 53m
Waxing Crescent, 13% of the Moon is Illuminated
Feb 13
Waxing Crescent
Feb 17
First Quarter
Feb 25
Full
Mar 4
Last Quarter
Mar 11
New

Hourly Weather History & Observations

Time (EST) Temp. Dew Point Humidity Pressure Visibility Wind Dir Wind Speed Gust Speed Precip Events Conditions
12:54 AM 51.1 °F 46.9 °F 86% 29.97 in 6.0 mi Calm Calm - 0.02 in Rain Light Rain
1:54 AM 50.0 °F 48.0 °F 93% 29.94 in 9.0 mi NE 4.6 mph - 0.04 in   Overcast
2:54 AM 50.0 °F 46.9 °F 89% 29.88 in 10.0 mi East 8.1 mph - 0.03 in   Overcast
3:54 AM 48.9 °F 45.0 °F 86% 29.86 in 5.0 mi East 4.6 mph - 0.04 in Rain Light Rain
4:06 AM 48.2 °F 44.6 °F 87% 29.84 in 2.5 mi ESE 10.4 mph - N/A Rain Rain
4:15 AM 48.2 °F 44.6 °F 87% 29.83 in 4.0 mi ESE 10.4 mph - N/A Rain Light Rain
4:54 AM 48.0 °F 45.0 °F 89% 29.83 in 3.0 mi ENE 5.8 mph - N/A Rain Rain
5:22 AM 48.2 °F 44.6 °F 87% 29.85 in 3.0 mi East 5.8 mph - 0.03 in Rain Rain
5:34 AM 48.2 °F 44.6 °F 87% 29.84 in 3.0 mi East 5.8 mph - 0.04 in Rain Light Rain
5:42 AM 48.2 °F 44.6 °F 87% 29.83 in 6.0 mi East 5.8 mph - 0.05 in   Overcast
5:54 AM 48.0 °F 45.0 °F 89% 29.82 in 7.0 mi East 6.9 mph - 0.06 in   Overcast
6:03 AM 48.2 °F 44.6 °F 87% 29.83 in 10.0 mi East 4.6 mph - 0.01 in   Overcast
6:33 AM 48.2 °F 44.6 °F 87% 29.84 in 2.5 mi NE 3.5 mph - 0.04 in Rain Light Rain
6:41 AM 48.2 °F 46.4 °F 93% 29.85 in 3.0 mi NNE 4.6 mph - 0.04 in Rain Light Rain
6:54 AM 48.0 °F 46.0 °F 93% 29.82 in 3.0 mi ENE 4.6 mph - 0.06 in Rain Light Rain
7:54 AM 48.9 °F 46.0 °F 90% 29.80 in 8.0 mi NNE 6.9 mph - 0.05 in   Overcast
8:03 AM 48.2 °F 46.4 °F 93% 29.80 in 5.0 mi NE 6.9 mph - N/A   Overcast
8:23 AM 48.2 °F 46.4 °F 93% 29.81 in 2.0 mi NNE 10.4 mph - N/A   Overcast
8:41 AM 48.2 °F 46.4 °F 93% 29.79 in 1.8 mi NNE 9.2 mph - 0.01 in Rain Light Rain
8:54 AM 48.9 °F 46.0 °F 90% 29.78 in 1.8 mi NNE 8.1 mph - 0.01 in   Overcast
9:01 AM 48.2 °F 46.4 °F 93% 29.79 in 2.0 mi NNE 6.9 mph - N/A   Overcast
9:40 AM 48.2 °F 46.4 °F 93% 29.79 in 1.5 mi NNE 9.2 mph - 0.00 in Rain Light Rain
9:54 AM 48.9 °F 46.9 °F 93% 29.77 in 1.5 mi NNE 8.1 mph - 0.01 in Rain Light Rain
10:11 AM 48.2 °F 46.4 °F 93% 29.77 in 2.0 mi NNE 9.2 mph - 0.00 in   Overcast
10:54 AM 50.0 °F 46.9 °F 89% 29.75 in 2.0 mi North 6.9 mph - 0.00 in   Overcast
11:39 AM 51.8 °F 48.2 °F 88% 29.73 in 10.0 mi ENE 5.8 mph - N/A   Overcast
11:54 AM 51.1 °F 48.0 °F 89% 29.73 in 10.0 mi NE 4.6 mph - N/A   Overcast
12:54 PM 53.1 °F 48.9 °F 86% 29.73 in 10.0 mi North 4.6 mph - N/A   Overcast
1:54 PM 53.1 °F 51.1 °F 93% 29.69 in 10.0 mi Calm Calm - N/A   Overcast
2:54 PM 55.0 °F 52.0 °F 89% 29.67 in 5.0 mi Variable 4.6 mph - N/A   Overcast
3:54 PM 55.9 °F 54.0 °F 93% 29.66 in 10.0 mi SW 10.4 mph - N/A   Overcast
4:54 PM 55.0 °F 53.1 °F 93% 29.64 in 6.0 mi SSW 6.9 mph - N/A   Overcast
5:54 PM 55.9 °F 53.1 °F 90% 29.67 in 8.0 mi SW 10.4 mph - N/A   Overcast
6:40 PM 55.4 °F 53.6 °F 94% 29.69 in 8.0 mi WSW 13.8 mph - N/A   Mostly Cloudy
6:54 PM 55.9 °F 53.1 °F 90% 29.67 in 8.0 mi West 16.1 mph 29.9 mph 0.00 in Rain Light Rain
7:54 PM 55.9 °F 51.1 °F 84% 29.70 in 7.0 mi West 13.8 mph - 0.04 in Rain Rain
8:54 PM 54.0 °F 48.0 °F 80% 29.72 in 10.0 mi West 16.1 mph - 0.04 in Rain Light Rain
9:43 PM 53.6 °F 48.2 °F 82% 29.74 in 5.0 mi West 13.8 mph - 0.00 in   Mostly Cloudy
9:54 PM 54.0 °F 46.9 °F 77% 29.75 in 5.0 mi West 16.1 mph - 0.00 in   Mostly Cloudy
10:09 PM 53.6 °F 46.4 °F 77% 29.77 in 10.0 mi West 15.0 mph - N/A   Mostly Cloudy
10:54 PM 53.1 °F 46.0 °F 77% 29.76 in 10.0 mi West 13.8 mph 21.9 mph N/A   Mostly Cloudy
11:52 PM 51.8 °F 44.6 °F 76% 29.79 in 10.0 mi West 10.4 mph - N/A   Scattered Clouds
11:54 PM 52.0 °F 45.0 °F 77% 29.79 in 10.0 mi West 11.5 mph - N/A   Mostly Cloudy